DAL2926 KBIS-KMSP

Flight info

Callsign DAL2926
Flight time 1h 0m
Altitude 35000
Route TTAIL BAINY4
Aircraft A320/M-SDE3FGHIRWY/LB1

Departure

Time 2026-04-15 15:06
Airport Bismarck Municipal Airport (KBIS)

Arrival

Time 2026-04-15 16:06
Airport Minneapolis–Saint Paul International Airport / Wold–Chamberlain Field (KMSP)
Time Latitude Longitude Altitude Speed Heading
2026-04-15 14:51 46.77571 -100.75705 1655 ft 0 kts 217°
2026-04-15 15:01 46.77575 -100.75701 1669 ft 4 kts 227°
2026-04-15 15:01 46.77577 -100.75687 1671 ft 4 kts 313°
2026-04-15 15:01 46.77563 -100.75667 1660 ft 0 kts 316°
2026-04-15 15:03 46.77564 -100.75667 1660 ft 1 kts 317°
2026-04-15 15:03 46.77612 -100.75674 1660 ft 10 kts 355°
2026-04-15 15:04 46.77701 -100.75680 1659 ft 19 kts 353°
2026-04-15 15:04 46.77814 -100.75784 1662 ft 20 kts 317°
2026-04-15 15:04 46.77920 -100.75924 1660 ft 21 kts 317°
2026-04-15 15:04 46.78035 -100.76079 1653 ft 23 kts 317°
2026-04-15 15:05 46.78158 -100.76242 1651 ft 25 kts 317°
2026-04-15 15:05 46.78267 -100.76341 1653 ft 17 kts
2026-04-15 15:05 46.78350 -100.76228 1653 ft 16 kts 51°
2026-04-15 15:05 46.78333 -100.76091 1650 ft 23 kts 134°
2026-04-15 15:06 46.77267 -100.74690 1684 ft 172 kts 138°
2026-04-15 15:06 46.76388 -100.73529 2482 ft 174 kts 140°
2026-04-15 15:06 46.75475 -100.72339 3387 ft 179 kts 143°
2026-04-15 15:07 46.74593 -100.70998 3893 ft 194 kts 133°
2026-04-15 15:07 46.73779 -100.69341 4265 ft 209 kts 124°
2026-04-15 15:07 46.73070 -100.67391 4651 ft 226 kts 116°
2026-04-15 15:07 46.72462 -100.65149 4970 ft 250 kts 108°
2026-04-15 15:08 46.72082 -100.62630 5591 ft 260 kts 98°
2026-04-15 15:08 46.71969 -100.59958 6306 ft 268 kts 89°
2026-04-15 15:08 46.72020 -100.57212 7046 ft 274 kts 89°
2026-04-15 15:08 46.72053 -100.54401 7789 ft 281 kts 89°
2026-04-15 15:09 46.72068 -100.51521 8534 ft 287 kts 89°
2026-04-15 15:09 46.72082 -100.48586 9333 ft 292 kts 89°
2026-04-15 15:09 46.72100 -100.45650 10106 ft 296 kts 89°
2026-04-15 15:09 46.72124 -100.42544 10425 ft 318 kts 89°
2026-04-15 15:10 46.72153 -100.39201 10705 ft 339 kts 89°
2026-04-15 15:10 46.72185 -100.35720 11315 ft 347 kts 89°
2026-04-15 15:10 46.72218 -100.32177 12028 ft 352 kts 89°
2026-04-15 15:10 46.72248 -100.28589 12756 ft 356 kts 89°
2026-04-15 15:11 46.72274 -100.24957 13477 ft 361 kts 89°
2026-04-15 15:11 46.72296 -100.21281 14114 ft 365 kts 89°
2026-04-15 15:11 46.72319 -100.17567 14761 ft 368 kts 89°
2026-04-15 15:11 46.72342 -100.13823 15403 ft 371 kts 89°
2026-04-15 15:12 46.72364 -100.10033 16017 ft 375 kts 89°
2026-04-15 15:12 46.72384 -100.06202 16627 ft 379 kts 89°
2026-04-15 15:12 46.72405 -100.02385 17213 ft 384 kts 89°
2026-04-15 15:12 46.72425 -99.98427 17813 ft 388 kts 89°
2026-04-15 15:13 46.72442 -99.94531 18362 ft 392 kts 89°
2026-04-15 15:13 46.72457 -99.90541 18895 ft 395 kts 89°
2026-04-15 15:13 46.72472 -99.86511 19445 ft 398 kts 89°
2026-04-15 15:13 46.72483 -99.82461 19995 ft 401 kts 89°
2026-04-15 15:14 46.72491 -99.78381 20551 ft 404 kts 89°
2026-04-15 15:14 46.72497 -99.74272 21098 ft 407 kts 88°
2026-04-15 15:14 46.72504 -99.70130 21636 ft 410 kts 88°
2026-04-15 15:14 46.72512 -99.65957 22178 ft 413 kts 88°
2026-04-15 15:15 46.72523 -99.61751 22713 ft 417 kts 88°
2026-04-15 15:15 46.72534 -99.57504 23229 ft 420 kts 87°
2026-04-15 15:15 46.72539 -99.53242 23678 ft 423 kts 88°
2026-04-15 15:15 46.72540 -99.48943 24108 ft 426 kts 88°
2026-04-15 15:16 46.72537 -99.44673 24521 ft 428 kts 88°
2026-04-15 15:16 46.72533 -99.40317 24937 ft 430 kts 88°
2026-04-15 15:16 46.72528 -99.35948 25359 ft 432 kts 87°
2026-04-15 15:16 46.72520 -99.31559 25770 ft 434 kts 87°
2026-04-15 15:17 46.72510 -99.27152 26172 ft 436 kts 87°
2026-04-15 15:17 46.72499 -99.22725 26558 ft 438 kts 87°
2026-04-15 15:17 46.72489 -99.18287 26933 ft 440 kts 87°
2026-04-15 15:17 46.72479 -99.13810 27308 ft 442 kts 87°
2026-04-15 15:18 46.72466 -99.09321 27689 ft 444 kts 87°
2026-04-15 15:18 46.72450 -99.04810 28040 ft 446 kts 87°
2026-04-15 15:18 46.72434 -99.00270 28394 ft 448 kts 87°
2026-04-15 15:18 46.72419 -98.95719 28761 ft 450 kts 87°
2026-04-15 15:19 46.72400 -98.91152 29130 ft 451 kts 87°
2026-04-15 15:19 46.72378 -98.86572 29481 ft 453 kts 87°
2026-04-15 15:19 46.72351 -98.81974 29805 ft 455 kts 87°
2026-04-15 15:19 46.72321 -98.77357 30074 ft 457 kts 87°
2026-04-15 15:20 46.72290 -98.72781 30331 ft 458 kts 87°
2026-04-15 15:20 46.72256 -98.68136 30574 ft 460 kts 88°
2026-04-15 15:20 46.72221 -98.63452 30813 ft 462 kts 88°
2026-04-15 15:20 46.72187 -98.58763 31047 ft 464 kts 88°
2026-04-15 15:21 46.72150 -98.54053 31325 ft 465 kts 88°
2026-04-15 15:21 46.72111 -98.49337 31668 ft 464 kts 88°
2026-04-15 15:21 46.72071 -98.44639 31990 ft 464 kts 88°
2026-04-15 15:21 46.72028 -98.39942 32304 ft 464 kts 88°
2026-04-15 15:22 46.71983 -98.35245 32599 ft 464 kts 89°
2026-04-15 15:22 46.71936 -98.30538 32894 ft 464 kts 89°
2026-04-15 15:22 46.71888 -98.25898 33192 ft 464 kts 89°
2026-04-15 15:22 46.71834 -98.21190 33495 ft 464 kts 89°
2026-04-15 15:23 46.71778 -98.16490 33792 ft 464 kts 89°
2026-04-15 15:23 46.71721 -98.11790 34050 ft 464 kts 90°
2026-04-15 15:23 46.71665 -98.07062 34191 ft 468 kts 90°
2026-04-15 15:23 46.71607 -98.02307 34368 ft 469 kts 90°
2026-04-15 15:24 46.71547 -97.97558 34568 ft 470 kts 90°
2026-04-15 15:24 46.71483 -97.92791 34752 ft 471 kts 91°
2026-04-15 15:24 46.71354 -97.83379 34817 ft 464 kts 91°
2026-04-15 15:25 46.71223 -97.74005 34827 ft 462 kts 91°
2026-04-15 15:25 46.71074 -97.64621 34828 ft 464 kts 91°
2026-04-15 15:26 46.70914 -97.55197 34838 ft 465 kts 92°
2026-04-15 15:26 46.70749 -97.45764 34840 ft 465 kts 92°
2026-04-15 15:27 46.70578 -97.36349 34840 ft 465 kts 92°
2026-04-15 15:27 46.70394 -97.26977 34847 ft 466 kts 92°
2026-04-15 15:28 46.70202 -97.17530 34829 ft 466 kts 92°
2026-04-15 15:28 46.70010 -97.08088 34824 ft 467 kts 92°
2026-04-15 15:29 46.69819 -96.98615 34822 ft 468 kts 92°
2026-04-15 15:29 46.69609 -96.89146 34823 ft 468 kts 93°
2026-04-15 15:30 46.69382 -96.79656 34812 ft 470 kts 93°
2026-04-15 15:30 46.68948 -96.70208 34811 ft 469 kts 103°
2026-04-15 15:31 46.66952 -96.61258 34817 ft 464 kts 116°
2026-04-15 15:31 46.64381 -96.52618 34833 ft 465 kts 116°
2026-04-15 15:32 46.61808 -96.43977 34835 ft 466 kts 117°
2026-04-15 15:32 46.59224 -96.35331 34841 ft 466 kts 117°
2026-04-15 15:33 46.56635 -96.26682 34844 ft 467 kts 117°
2026-04-15 15:33 46.54042 -96.18035 34848 ft 467 kts 117°
2026-04-15 15:34 46.51438 -96.09400 34852 ft 467 kts 117°
2026-04-15 15:34 46.48824 -96.00777 34850 ft 466 kts 118°
2026-04-15 15:35 46.46208 -95.92172 34861 ft 466 kts 118°
2026-04-15 15:35 46.43605 -95.83634 34863 ft 466 kts 118°
2026-04-15 15:36 46.40978 -95.75056 34838 ft 466 kts 119°
2026-04-15 15:36 46.38346 -95.66485 34844 ft 466 kts 119°
2026-04-15 15:37 46.35706 -95.57916 34843 ft 466 kts 120°
2026-04-15 15:37 46.33055 -95.49364 34855 ft 466 kts 120°
2026-04-15 15:38 46.30401 -95.40812 34865 ft 465 kts 120°
2026-04-15 15:38 46.27762 -95.32291 34559 ft 461 kts 120°
2026-04-15 15:39 46.26450 -95.28074 34325 ft 459 kts 120°
2026-04-15 15:39 46.25138 -95.23883 34093 ft 457 kts 120°
2026-04-15 15:39 46.23828 -95.19712 33831 ft 455 kts 121°
2026-04-15 15:39 46.22520 -95.15555 33533 ft 454 kts 122°
2026-04-15 15:40 46.21217 -95.11416 33275 ft 452 kts 123°
2026-04-15 15:40 46.19922 -95.07297 33005 ft 450 kts 122°
2026-04-15 15:40 46.18635 -95.03198 32745 ft 447 kts 123°
2026-04-15 15:40 46.17370 -94.99171 32486 ft 445 kts 123°
2026-04-15 15:41 46.16093 -94.95118 32223 ft 443 kts 123°
2026-04-15 15:41 46.14823 -94.91097 31792 ft 439 kts 123°
2026-04-15 15:41 46.13554 -94.87102 31266 ft 437 kts 123°
2026-04-15 15:41 46.12699 -94.84415 30949 ft 435 kts 123°
2026-04-15 15:42 46.11455 -94.80505 30489 ft 432 kts 123°
2026-04-15 15:42 46.10205 -94.76579 30007 ft 430 kts 123°
2026-04-15 15:42 46.08961 -94.72667 29531 ft 426 kts 124°
2026-04-15 15:42 46.07736 -94.68812 29093 ft 421 kts 124°
2026-04-15 15:43 46.06526 -94.65006 28640 ft 415 kts 125°
2026-04-15 15:43 46.05328 -94.61251 28227 ft 411 kts 125°
2026-04-15 15:43 46.04137 -94.57537 27799 ft 407 kts 125°
2026-04-15 15:43 46.02948 -94.53848 27385 ft 403 kts 125°
2026-04-15 15:44 46.01773 -94.50210 26961 ft 399 kts 125°
2026-04-15 15:44 46.00611 -94.46600 26592 ft 396 kts 125°
2026-04-15 15:44 45.99457 -94.43020 26170 ft 393 kts 125°
2026-04-15 15:44 45.98307 -94.39459 25737 ft 390 kts 125°
2026-04-15 15:45 45.97179 -94.35976 25313 ft 388 kts 125°
2026-04-15 15:45 45.96029 -94.32427 24860 ft 386 kts 124°
2026-04-15 15:45 45.94913 -94.28989 24435 ft 383 kts 124°
2026-04-15 15:45 45.93788 -94.25524 23986 ft 382 kts 124°
2026-04-15 15:46 45.92667 -94.22071 23538 ft 381 kts 124°
2026-04-15 15:46 45.91543 -94.18626 23035 ft 379 kts 124°
2026-04-15 15:46 45.90429 -94.15212 22590 ft 376 kts 123°
2026-04-15 15:46 45.89322 -94.11818 22111 ft 373 kts 123°
2026-04-15 15:47 45.88221 -94.08464 21711 ft 370 kts 123°
2026-04-15 15:47 45.87122 -94.05136 21283 ft 368 kts 123°
2026-04-15 15:47 45.86025 -94.01832 20849 ft 366 kts 123°
2026-04-15 15:47 45.84928 -93.98540 20438 ft 364 kts 123°
2026-04-15 15:48 45.83838 -93.95272 20013 ft 362 kts 122°
2026-04-15 15:48 45.82750 -93.92020 19583 ft 361 kts 122°
2026-04-15 15:48 45.81667 -93.88781 19181 ft 359 kts 121°
2026-04-15 15:48 45.80589 -93.85554 18771 ft 359 kts 121°
2026-04-15 15:49 45.79510 -93.82338 18363 ft 358 kts 121°
2026-04-15 15:49 45.78437 -93.79135 18033 ft 354 kts 120°
2026-04-15 15:49 45.77381 -93.75971 17653 ft 351 kts 120°
2026-04-15 15:49 45.76172 -93.72988 17262 ft 342 kts 132°
2026-04-15 15:50 45.74582 -93.70531 16884 ft 332 kts 145°
2026-04-15 15:50 45.72716 -93.68676 16517 ft 322 kts 158°
2026-04-15 15:50 45.70685 -93.67428 16146 ft 315 kts 165°
2026-04-15 15:50 45.68636 -93.66343 15818 ft 313 kts 165°
2026-04-15 15:51 45.66604 -93.65261 15470 ft 311 kts 165°
2026-04-15 15:51 45.64609 -93.64194 15133 ft 309 kts 165°
2026-04-15 15:51 45.62600 -93.63119 14785 ft 308 kts 165°
2026-04-15 15:51 45.60600 -93.62051 14442 ft 306 kts 164°
2026-04-15 15:52 45.58595 -93.60983 14058 ft 306 kts 164°
2026-04-15 15:52 45.56603 -93.59916 13683 ft 306 kts 163°
2026-04-15 15:52 45.54607 -93.58834 13277 ft 306 kts 163°
2026-04-15 15:52 45.52627 -93.57756 12897 ft 304 kts 163°
2026-04-15 15:53 45.50648 -93.56676 12510 ft 302 kts 163°
2026-04-15 15:53 45.48704 -93.55618 12145 ft 301 kts 163°
2026-04-15 15:53 45.46752 -93.54559 11762 ft 300 kts 163°
2026-04-15 15:53 45.44808 -93.53507 11386 ft 298 kts 163°
2026-04-15 15:54 45.42889 -93.52467 11156 ft 287 kts 163°
2026-04-15 15:54 45.41062 -93.51469 10737 ft 278 kts 163°
2026-04-15 15:54 45.39267 -93.50496 10295 ft 276 kts 163°
2026-04-15 15:54 45.37463 -93.49526 9916 ft 277 kts 163°
2026-04-15 15:55 45.35654 -93.48608 9509 ft 274 kts 169°
2026-04-15 15:55 45.33793 -93.48166 9122 ft 269 kts 181°
2026-04-15 15:55 45.31927 -93.48179 8729 ft 266 kts 185°
2026-04-15 15:55 45.30084 -93.48231 8359 ft 264 kts 185°
2026-04-15 15:56 45.28294 -93.48283 8199 ft 247 kts 185°
2026-04-15 15:56 45.26641 -93.48326 8033 ft 230 kts 185°
2026-04-15 15:56 45.25063 -93.48370 7634 ft 225 kts 185°
2026-04-15 15:56 45.23498 -93.48419 7392 ft 225 kts 185°
2026-04-15 15:57 45.21932 -93.48469 7258 ft 226 kts 185°
2026-04-15 15:57 45.20378 -93.48516 7163 ft 226 kts 185°
2026-04-15 15:57 45.18809 -93.48643 7061 ft 224 kts 194°
2026-04-15 15:57 45.17362 -93.49356 6992 ft 219 kts 211°
2026-04-15 15:58 45.16114 -93.50584 7003 ft 219 kts 219°
2026-04-15 15:58 45.14896 -93.51876 6999 ft 219 kts 218°
2026-04-15 15:58 45.13671 -93.53167 6998 ft 219 kts 218°
2026-04-15 15:58 45.12445 -93.54454 6996 ft 220 kts 218°
2026-04-15 15:59 45.11214 -93.55746 6998 ft 220 kts 218°
2026-04-15 15:59 45.09985 -93.57036 6998 ft 220 kts 218°
2026-04-15 15:59 45.08734 -93.58292 6882 ft 223 kts 211°
2026-04-15 15:59 45.07291 -93.59004 6745 ft 217 kts 191°
2026-04-15 16:00 45.05804 -93.58980 6642 ft 211 kts 172°
2026-04-15 16:00 45.04467 -93.58309 6508 ft 205 kts 155°
2026-04-15 16:00 45.03349 -93.57078 6284 ft 205 kts 136°
2026-04-15 16:00 45.02530 -93.55414 6024 ft 207 kts 124°
2026-04-15 16:01 45.01789 -93.53673 5759 ft 206 kts 124°
2026-04-15 16:01 45.01051 -93.51943 5483 ft 205 kts 124°
2026-04-15 16:01 45.00315 -93.50223 5220 ft 204 kts 123°
2026-04-15 16:01 44.99581 -93.48511 4931 ft 203 kts 123°
2026-04-15 16:02 44.98850 -93.46805 4667 ft 203 kts 123°
2026-04-15 16:02 44.98122 -93.45108 4391 ft 201 kts 123°
2026-04-15 16:02 44.97397 -93.43419 4124 ft 200 kts 122°
2026-04-15 16:02 44.96676 -93.41740 3858 ft 199 kts 122°
2026-04-15 16:03 44.95958 -93.40069 3589 ft 199 kts 122°
2026-04-15 16:03 44.95241 -93.38403 3320 ft 198 kts 121°
2026-04-15 16:03 44.94543 -93.36781 3086 ft 188 kts 121°
2026-04-15 16:03 44.93887 -93.35256 2831 ft 175 kts 120°
2026-04-15 16:04 44.93285 -93.33861 2623 ft 161 kts 120°
2026-04-15 16:04 44.92714 -93.32536 2411 ft 156 kts 119°
2026-04-15 16:04 44.92156 -93.31240 2199 ft 153 kts 119°
2026-04-15 16:04 44.91603 -93.29958 1992 ft 153 kts 120°
2026-04-15 16:05 44.91061 -93.28702 1776 ft 151 kts 119°
2026-04-15 16:05 44.90513 -93.27432 1563 ft 150 kts 119°
2026-04-15 16:05 44.89971 -93.26177 1355 ft 148 kts 120°
2026-04-15 16:05 44.89436 -93.24939 1149 ft 147 kts 121°
2026-04-15 16:06 44.88903 -93.23713 931 ft 146 kts 120°
2026-04-15 16:06 44.88388 -93.22515 829 ft 134 kts 121°
2026-04-15 16:06 44.88029 -93.21678 821 ft 57 kts 122°
2026-04-15 16:06 44.87935 -93.21382 822 ft 20 kts 69°
2026-04-15 16:07 44.88032 -93.21397 824 ft 18 kts 304°
2026-04-15 16:07 44.88092 -93.21533 822 ft 16 kts 302°
2026-04-15 16:07 44.88240 -93.21872 822 ft 21 kts 301°
2026-04-15 16:08 44.88318 -93.21924 824 ft 14 kts 31°
2026-04-15 16:08 44.88398 -93.21821 825 ft 19 kts 44°
2026-04-15 16:08 44.88504 -93.21676 824 ft 23 kts 45°
2026-04-15 16:08 44.88612 -93.21519 825 ft 22 kts 45°
2026-04-15 16:09 44.88702 -93.21394 823 ft 16 kts 45°
2026-04-15 16:09 44.88728 -93.21260 825 ft 16 kts 112°
2026-04-15 16:09 44.88665 -93.21105 822 ft 22 kts 118°
2026-04-15 16:09 44.88597 -93.20916 825 ft 18 kts 117°
2026-04-15 16:10 44.88518 -93.20770 822 ft 20 kts 121°
2026-04-15 16:10 44.88460 -93.20634 822 ft 13 kts 121°
2026-04-15 16:10 44.88420 -93.20570 825 ft 7 kts 159°
2026-04-15 16:10 44.88383 -93.20590 824 ft 5 kts 217°
2026-04-15 16:11 44.88368 -93.20608 824 ft 1 kts 220°
2026-04-15 16:11 44.88364 -93.20612 825 ft 0 kts 220°